FW7858 Weather Reports


time (UTC)temp
C
wind
direction
speed
KPH
gust
KPH
rain 1hr
cm
rain 24hr
cm
rain mn
cm
humidity
%
barometer
mb
20260906195505 25 197 8.0 19.3 0.00 0.00 0.00 88 1011.8
20260906195005 25 197 8.0 16.1 0.00 0.00 0.00 88 1011.9
20260906194505 25 204 6.4 19.3 0.00 0.00 0.00 88 1011.8
20260906194106 25 202 8.0 19.3 0.00 0.00 0.00 87 1011.7
20260906193507 25 161 8.0 16.1 0.00 0.00 0.00 87 1011.7
20260906193004 25 192 11.3 16.1 0.00 0.00 0.00 87 1011.7
20260906192504 25 156 6.4 19.3 0.00 0.00 0.00 87 1011.7
20260906192004 25 178 9.7 20.9 0.00 0.00 0.00 86 1011.8
20260906191503 25 196 12.9 20.9 0.00 0.00 0.00 86 1011.8
20260906191005 26 184 14.5 22.5 0.00 0.00 0.00 85 1011.8
20260906190504 26 184 8.0 16.1 0.00 0.00 0.00 85 1011.8
20260906190002 26 150 9.7 16.1 0.00 0.00 0.00 85 1011.9
20260906185501 26 188 9.7 17.7 0.00 0.00 0.00 86 1012.0
20260906185005 26 196 8.0 16.1 0.00 0.00 0.00 85 1012.0
20260906184502 26 200 8.0 17.7 0.00 0.00 0.00 85 1012.0
20260906184001 26 178 9.7 17.7 0.00 0.00 0.00 85 1011.9
20260906183502 26 158 8.0 16.1 0.00 0.00 0.00 85 1011.8
20260906183105 26 208 9.7 16.1 0.00 0.00 0.00 85 1011.7
20260906182601 26 205 6.4 12.9 0.00 0.00 0.00 85 1011.9
20260906182503 26 177 3.2 14.5 0.00 0.00 0.00 85 1011.9
20260906182104 26 186 6.4 14.5 0.00 0.00 0.00 85 1011.8
20260906181600 26 192 8.0 14.5 0.00 0.00 0.00 84 1011.7
20260906181058 26 194 4.8 14.5 0.00 0.00 0.00 84 1011.8
20260906180602 26 220 4.8 14.5 0.00 0.00 0.00 84 1011.9
20260906180058 26 175 6.4 9.7 0.00 0.00 0.00 84 1011.9
20260906175600 26 199 1.6 8.0 0.00 0.00 0.00 84 1011.9
20260906175056 26 216 4.8 8.0 0.00 0.00 0.00 84 1011.9
20260906174556 26 215 0.0 8.0 0.00 0.00 0.00 84 1011.9
20260906174055 26 103 4.8 11.3 0.00 0.00 0.00 84 1011.9
20260906173558 26 227 3.2 11.3 0.00 0.00 0.00 84 1011.9
20260906173055 26 165 3.2 9.7 0.00 0.00 0.00 84 1012.1
20260906172555 26 193 3.2 9.7 0.00 0.00 0.00 84 1012.2
20260906172054 26 177 4.8 9.7 0.00 0.00 0.00 84 1012.3
20260906171604 26 74 1.6 8.0 0.00 0.00 0.00 84 1012.3
20260906171052 26 204 1.6 12.9 0.00 0.00 0.00 85 1012.3
20260906170551 26 191 3.2 12.9 0.00 0.00 0.00 84 1012.2
20260906170055 26 214 3.2 6.4 0.00 0.00 0.00 85 1012.4
20260906165549 26 279 1.6 12.9 0.00 0.00 0.00 85 1012.4
20260906165048 26 204 4.8 12.9 0.00 0.00 0.00 85 1012.5
20260906164555 26 244 1.6 14.5 0.00 0.00 0.00 85 1012.6
20260906164048 26 202 4.8 14.5 0.00 0.00 0.00 85 1012.6
20260906163549 26 275 1.6 9.7 0.00 0.00 0.00 85 1012.7
20260906163051 26 282 1.6 8.0 0.00 0.00 0.00 85 1012.7
20260906162548 26 65 1.6 12.9 0.00 0.00 0.00 85 1012.6
20260906162047 26 223 4.8 12.9 0.00 0.00 0.00 84 1012.7
20260906161548 26 240 3.2 11.3 0.00 0.00 0.00 85 1012.7
20260906161042 25 194 3.2 12.9 0.00 0.00 0.00 85 1012.7
20260906160541 25 221 1.6 12.9 0.00 0.00 0.00 85 1012.5
20260906160049 25 216 4.8 14.5 0.00 0.00 0.00 85 1012.6
20260906155544 25 191 3.2 11.3 0.00 0.00 0.00 86 1012.6
20260906155038 25 201 1.6 11.3 0.00 0.00 0.00 86 1012.6
20260906154537 25 240 1.6 11.3 0.00 0.00 0.00 86 1012.8
20260906154037 25 212 3.2 8.0 0.00 0.00 0.00 87 1012.7
20260906153535 25 360 1.6 14.5 0.00 0.00 0.00 87 1012.8
20260906153043 24 195 1.6 8.0 0.00 0.00 0.00 87 1012.9
20260906152536 24 265 3.2 8.0 0.00 0.00 0.00 88 1012.9
20260906152033 24 294 3.2 11.3 0.00 0.00 0.00 88 1013.0
20260906151533 24 72 3.2 11.3 0.00 0.00 0.00 87 1013.1
20260906151032 24 315 3.2 6.4 0.00 0.00 0.00 88 1013.1
20260906150530 24 306 3.2 8.0 0.00 0.00 0.00 88 1013.1
20260906150046 23 206 3.2 9.7 0.00 0.00 0.00 89 1013.1
20260906145528 23 299 3.2 8.0 0.00 0.00 0.00 90 1013.1
20260906145027 23 283 3.2 8.0 0.00 0.00 0.00 90 1013.2
20260906144535 23 82 1.6 8.0 0.00 0.00 0.00 90 1013.2
20260906144024 23 306 3.2 8.0 0.00 0.00 0.00 91 1013.1
20260906143524 23 284 3.2 8.0 0.00 0.00 0.00 91 1013.1
20260906143029 22 288 4.8 9.7 0.00 0.00 0.00 92 1013.0
20260906142520 22 140 3.2 6.4 0.00 0.00 0.00 92 1013.1
20260906142020 22 273 1.6 6.4 0.00 0.00 0.00 92 1013.1
20260906141532 22 164 3.2 8.0 0.00 0.00 0.00 93 1013.2
20260906141018 22 303 3.2 8.0 0.00 0.00 0.00 93 1013.2
20260906140517 22 232 1.6 8.0 0.00 0.00 0.00 93 1013.2
20260906140021 22 278 3.2 6.4 0.00 0.00 0.00 93 1013.3
20260906135515 22 150 1.6 6.4 0.00 0.00 0.00 93 1013.3
20260906135013 22 279 1.6 6.4 0.00 0.00 0.00 93 1013.3
20260906134512 22 287 3.2 6.4 0.00 0.00 0.00 93 1013.4
20260906134011 22 278 1.6 6.4 0.00 0.00 0.00 94 1013.4
20260906133513 22 203 3.2 6.4 0.00 0.00 0.00 94 1013.4
20260906133010 22 291 1.6 6.4 0.00 0.00 0.00 94 1013.3
20260906132511 22 325 1.6 9.7 0.00 0.00 0.00 94 1013.3
20260906132010 22 336 1.6 9.7 0.00 0.00 0.00 94 1013.4
20260906131522 21 288 1.6 6.4 0.00 0.00 0.00 94 1013.3
20260906131008 21 341 1.6 4.8 0.00 0.00 0.00 94 1013.3
20260906130508 21 309 1.6 4.8 0.00 0.00 0.00 94 1013.3
20260906130008 21 336 1.6 4.8 0.00 0.00 0.00 94 1013.3
20260906125510 21 49 1.6 8.0 0.00 0.00 0.00 95 1013.2
20260906125007 21 300 1.6 8.0 0.00 0.00 0.00 95 1013.2
20260906124508 21 304 0.0 3.2 0.00 0.00 0.00 95 1013.2
20260906124007 21 303 0.0 4.8 0.00 0.00 0.00 95 1013.1
20260906123506 21 303 1.6 4.8 0.00 0.00 0.00 95 1013.1
20260906123010 21 303 0.0 4.8 0.00 0.00 0.00 94 1013.0
20260906122507 21 319 1.6 3.2 0.00 0.00 0.00 94 1013.0
20260906122006 21 319 0.0 4.8 0.00 0.00 0.00 94 1013.0
20260906121505 21 319 0.0 4.8 0.00 0.00 0.00 94 1012.9
20260906121006 21 317 0.0 3.2 0.00 0.00 0.00 94 1013.1
20260906120508 21 317 0.0 0.0 0.00 0.00 0.00 94 1013.0
20260906120005 21 317 0.0 0.0 0.00 0.00 0.00 94 1013.0
20260906115506 21 317 0.0 3.2 0.00 0.00 0.00 94 1012.8
20260906115005 21 317 0.0 3.2 0.00 0.00 0.00 94 1012.8
20260906114505 21 316 0.0 3.2 0.00 0.00 0.00 94 1012.8
20260906114007 21 307 0.0 4.8 0.00 0.00 0.00 94 1012.8
20260906113504 21 309 0.0 4.8 0.00 0.00 0.00 93 1012.7
20260906113005 21 309 0.0 4.8 0.00 0.00 0.00 93 1012.7
20260906112506 21 295 0.0 3.2 0.00 0.00 0.00 93 1012.8
20260906112004 21 291 0.0 6.4 0.00 0.00 0.00 93 1012.9
20260906111504 21 291 1.6 6.4 0.00 0.00 0.00 93 1012.8
20260906111003 21 337 0.0 4.8 0.00 0.00 0.00 93 1012.8
20260906110503 21 340 1.6 6.4 0.00 0.00 0.00 93 1012.9
20260906110004 21 279 0.0 8.0 0.00 0.00 0.00 93 1013.1
20260906105503 21 298 0.0 8.0 0.00 0.00 0.00 93 1013.1
20260906105007 21 44 0.0 6.4 0.00 0.00 0.00 93 1013.2
20260906104503 21 315 1.6 6.4 0.00 0.00 0.00 93 1013.2
20260906104002 21 302 1.6 3.2 0.00 0.00 0.00 93 1013.1
20260906103603 21 298 0.0 3.2 0.00 0.00 0.00 93 1013.1
20260906103002 21 298 0.0 11.3 0.00 0.00 0.00 93 1013.2
20260906102502 21 298 1.6 11.3 0.00 0.00 0.00 93 1013.0
20260906102004 21 300 3.2 8.0 0.00 0.00 0.00 93 1012.8
20260906101502 21 328 3.2 4.8 0.00 0.00 0.00 93 1013.0
20260906101003 21 328 1.6 4.8 0.00 0.00 0.00 93 1013.1
20260906100500 21 328 0.0 4.8 0.00 0.00 0.00 93 1013.2
20260906100001 21 338 1.6 6.4 0.00 0.00 0.00 93 1013.2
20260906095501 21 338 0.0 6.4 0.00 0.00 0.00 93 1013.2
20260906095003 21 69 1.6 6.4 0.00 0.00 0.00 93 1013.2
20260906094504 21 331 0.0 3.2 0.00 0.00 0.00 93 1013.1
20260906094001 21 331 1.6 3.2 0.00 0.00 0.00 93 1013.0
20260906093600 21 331 1.6 3.2 0.00 0.00 0.00 93 1012.9
20260906093108 21 331 1.6 3.2 0.00 0.00 0.00 93 1012.9
20260906092600 21 331 0.0 3.2 0.00 0.00 0.00 93 1012.8
20260906092059 21 331 0.0 3.2 0.00 0.00 0.00 93 1012.8
20260906091604 21 333 0.0 3.2 0.00 0.00 0.00 92 1012.7
20260906091059 21 333 0.0 3.2 0.00 0.00 0.00 92 1012.6
20260906090559 21 333 0.0 3.2 0.00 0.00 0.00 92 1012.6
20260906090059 21 333 0.0 3.2 0.00 0.00 0.00 92 1012.7
20260906085558 21 333 0.0 4.8 0.00 0.00 0.00 92 1012.6
20260906085058 21 333 1.6 4.8 0.00 0.00 0.00 92 1012.5
20260906084558 21 53 1.6 4.8 0.00 0.00 0.00 92 1012.5
20260906084058 21 53 0.0 4.8 0.00 0.00 0.00 92 1012.6
20260906083557 21 61 1.6 3.2 0.00 0.00 0.00 92 1012.5
20260906083057 21 61 0.0 3.2 0.00 0.00 0.00 92 1012.5
20260906082556 21 62 0.0 3.2 0.00 0.00 0.00 92 1012.4
20260906082056 21 62 0.0 4.8 0.00 0.00 0.00 92 1012.4
20260906081557 21 63 0.0 1.6 0.00 0.00 0.00 92 1012.3
20260906081056 21 63 0.0 4.8 0.00 0.00 0.00 92 1012.2
20260906080556 21 63 0.0 4.8 0.00 0.00 0.00 92 1012.2
20260906080056 21 64 0.0 4.8 0.00 0.00 0.00 92 1012.2
20260906075555 21 38 0.0 6.4 0.00 0.00 0.00 92 1012.0
20260906075057 21 318 3.2 6.4 0.00 0.00 0.00 92 1011.9
20260906074556 21 263 3.2 6.4 0.00 0.00 0.00 92 1011.8
20260906074053 21 309 3.2 6.4 0.00 0.00 0.00 92 1011.8
20260906073553 21 304 3.2 9.7 0.00 0.00 0.00 91 1011.9
20260906073053 21 107 1.6 9.7 0.00 0.00 0.00 91 1012.1
20260906072552 21 322 1.6 6.4 0.00 0.00 0.00 91 1012.2
20260906072051 21 314 1.6 6.4 0.00 0.00 0.00 91 1012.2
20260906071549 21 302 1.6 6.4 0.00 0.00 0.00 91 1012.2
20260906071052 21 300 3.2 6.4 0.00 0.00 0.00 90 1012.3
20260906070549 21 301 3.2 6.4 0.00 0.00 0.00 90 1012.3
20260906070050 21 292 3.2 6.4 0.00 0.00 0.00 90 1012.4
20260906065547 21 296 1.6 6.4 0.00 0.00 0.00 90 1012.6
20260906065046 21 296 3.2 8.0 0.00 0.00 0.00 90 1012.6
20260906064546 21 276 1.6 8.0 0.00 0.00 0.00 89 1012.7
20260906064045 21 302 1.6 4.8 0.00 0.00 0.00 89 1012.6
20260906063545 21 312 1.6 6.4 0.00 0.00 0.00 89 1012.7
20260906063044 21 303 3.2 6.4 0.00 0.00 0.00 89 1012.8
20260906062544 21 56 1.6 8.0 0.00 0.00 0.00 89 1012.8
20260906062046 21 75 1.6 8.0 0.00 0.00 0.00 89 1012.8
20260906061545 21 323 1.6 8.0 0.00 0.00 0.00 89 1012.8
20260906061042 21 60 1.6 8.0 0.00 0.00 0.00 89 1012.9
20260906060542 21 261 3.2 9.7 0.00 0.00 0.00 89 1012.9
20260906060042 21 298 3.2 4.8 0.00 0.00 0.00 89 1012.9
20260906055541 21 311 1.6 8.0 0.00 0.00 0.00 89 1013.0
20260906055041 21 304 3.2 8.0 0.00 0.00 0.00 89 1013.0
20260906054540 21 320 1.6 8.0 0.00 0.00 0.00 90 1012.9
20260906054040 21 334 3.2 8.0 0.00 0.00 0.00 90 1012.8
20260906053540 22 296 3.2 6.4 0.00 0.00 0.00 90 1012.9
20260906053038 22 290 3.2 4.8 0.00 0.00 0.00 90 1013.0
20260906052537 22 288 1.6 4.8 0.00 0.00 0.00 90 1013.1
20260906052037 22 285 1.6 4.8 0.00 0.00 0.00 90 1013.2
20260906051536 22 285 1.6 8.0 0.00 0.00 0.00 90 1013.2
20260906051038 22 284 1.6 8.0 0.00 0.00 0.00 90 1013.2
20260906050535 22 298 3.2 6.4 0.00 0.00 0.00 90 1013.2
20260906050034 22 300 1.6 4.8 0.00 0.00 0.00 90 1013.2
20260906045534 22 300 1.6 4.8 0.00 0.00 0.00 89 1013.1
20260906045135 22 300 1.6 4.8 0.00 0.00 0.00 89 1013.1
20260906044536 22 300 1.6 4.8 0.00 0.00 0.00 89 1013.1
20260906044032 22 299 1.6 4.8 0.00 0.00 0.00 89 1013.2
20260906043533 22 299 1.6 4.8 0.00 0.00 0.00 89 1013.2
20260906043042 22 298 0.0 4.8 0.00 0.00 0.00 88 1013.2
20260906042532 22 298 1.6 4.8 0.00 0.00 0.00 88 1013.2
20260906042033 22 298 1.6 4.8 0.00 0.00 0.00 88 1013.2
20260906041536 22 298 0.0 1.6 0.00 0.00 0.00 88 1013.2
20260906041034 22 298 0.0 1.6 0.00 0.00 0.00 88 1013.3
20260906040535 22 298 0.0 0.0 0.00 0.00 0.00 89 1013.3
20260906040035 22 298 0.0 1.6 0.00 0.00 0.00 89 1013.3
20260906035533 22 298 0.0 3.2 0.00 0.00 0.00 89 1013.3
20260906035031 22 298 1.6 3.2 0.00 0.00 0.00 89 1013.2
20260906034531 22 298 1.6 3.2 0.00 0.00 0.00 89 1013.1
20260906034032 22 298 0.0 1.6 0.00 0.00 0.00 89 1013.2
20260906033531 22 298 0.0 0.0 0.00 0.00 0.00 89 1013.2
20260906033031 22 298 0.0 3.2 0.00 0.00 0.00 89 1013.1
20260906032530 23 298 1.6 3.2 0.00 0.00 0.00 89 1013.1
20260906032031 23 298 0.0 3.2 0.00 0.00 0.00 89 1013.1
20260906031544 23 298 0.0 3.2 0.00 0.00 0.00 88 1013.0
20260906031030 23 298 0.0 3.2 0.00 0.00 0.00 88 1012.9
20260906030630 23 297 1.6 3.2 0.00 0.00 0.00 88 1012.9
20260906030029 23 297 0.0 3.2 0.00 0.00 0.00 87 1012.9
20260906025534 23 297 0.0 3.2 0.00 0.00 0.00 87 1012.9
20260906025029 23 297 1.6 3.2 0.00 0.00 0.00 87 1012.8
20260906024529 23 297 0.0 3.2 0.00 0.00 0.00 87 1012.7
20260906024032 23 298 0.0 4.8 0.00 0.00 0.00 86 1012.6
20260906023529 23 297 1.6 4.8 0.00 0.00 0.00 86 1012.5
20260906023032 23 297 3.2 4.8 0.00 0.00 0.00 86 1012.4
20260906022528 23 296 1.6 6.4 0.00 0.00 0.00 86 1012.3
20260906022033 23 297 3.2 6.4 0.00 0.00 0.00 86 1012.3
20260906021528 23 290 1.6 3.2 0.00 0.00 0.00 86 1012.3
20260906021027 23 290 1.6 4.8 0.00 0.00 0.00 86 1012.4
20260906020530 23 289 1.6 4.8 0.00 0.00 0.00 86 1012.4
20260906020032 23 277 0.0 4.8 0.00 0.00 0.00 86 1012.3
20260906015527 23 277 0.0 4.8 0.00 0.00 0.00 86 1012.4
20260906015027 23 277 1.6 4.8 0.00 0.00 0.00 86 1012.3
20260906014530 23 277 0.0 4.8 0.00 0.00 0.00 86 1012.2
20260906014029 23 276 0.0 3.2 0.00 0.00 0.00 85 1012.2
20260906013527 24 276 1.6 3.2 0.00 0.00 0.00 85 1012.3
20260906013027 24 276 0.0 3.2 0.00 0.00 0.00 85 1012.2
20260906012526 24 276 0.0 3.2 0.00 0.00 0.00 85 1012.1
20260906012026 24 276 1.6 3.2 0.00 0.00 0.00 85 1012.1
20260906011526 24 276 0.0 1.6 0.00 0.00 0.00 84 1012.2
20260906011027 24 276 0.0 1.6 0.00 0.00 0.00 84 1012.2
20260906010525 25 276 0.0 1.6 0.00 0.00 0.00 84 1012.1
20260906010025 25 276 0.0 1.6 0.00 0.00 0.00 83 1012.2
20260906005527 25 276 0.0 1.6 0.00 0.00 0.00 82 1012.2
20260906005025 25 285 0.0 1.6 0.00 0.00 0.00 82 1012.2
20260906004525 25 315 0.0 1.6 0.00 0.00 0.00 81 1012.1
20260906004025 25 315 0.0 1.6 0.00 0.00 0.00 81 1012.1
20260906003524 25 315 0.0 0.0 0.00 0.00 0.00 80 1012.0
20260906003027 26 315 0.0 1.6 0.00 0.00 0.00 80 1012.1
20260906002524 26 315 0.0 3.2 0.00 0.00 0.00 79 1012.1
20260906002025 26 315 0.0 4.8 0.00 0.00 0.00 79 1011.8
20260906001526 26 316 0.0 4.8 0.00 0.00 0.00 78 1011.5
20260906001023 26 300 0.0 4.8 0.00 0.00 0.00 77 1011.3
20260906000524 26 300 1.6 6.4 0.00 0.00 0.00 77 1011.1
20260906000024 27 281 1.6 11.3 0.00 0.00 0.00 76 1010.8
20260905235523 27 128 1.6 11.3 0.00 0.00 0.00 76 1010.7
20260905235023 27 315 3.2 8.0 0.00 0.00 0.00 76 1010.6
20260905234522 27 212 1.6 8.0 0.00 0.00 0.00 76 1010.5
20260905234031 27 336 3.2 8.0 0.00 0.00 0.00 77 1010.5
20260905233521 26 321 3.2 9.7 0.00 0.00 0.00 77 1010.5
20260905233025 26 121 3.2 9.7 0.00 0.00 0.00 77 1010.4
20260905232521 26 51 0.0 9.7 0.00 0.00 0.00 78 1010.4
20260905232021 26 271 3.2 11.3 0.00 0.00 0.00 78 1010.4
20260905231519 26 340 1.6 6.4 0.00 0.00 0.00 78 1010.4
20260905231019 26 309 1.6 6.4 0.00 0.00 0.00 78 1010.4
20260905230522 26 314 1.6 6.4 0.00 0.00 0.00 78 1010.6
20260905230019 26 307 3.2 11.3 0.00 0.00 0.00 77 1010.6
20260905225519 26 281 3.2 11.3 0.00 0.00 0.00 77 1010.5
20260905225018 26 281 3.2 14.5 0.00 0.00 0.00 78 1010.4
20260905224518 26 9 4.8 14.5 0.00 0.00 0.00 77 1010.4
20260905224018 26 296 4.8 14.5 0.00 0.00 0.00 77 1010.3
20260905223518 26 313 4.8 14.5 0.00 0.00 0.00 78 1010.4
20260905223033 26 355 3.2 12.9 0.00 0.00 0.00 78 1010.3
20260905222518 26 5 4.8 8.0 0.00 0.00 0.00 78 1010.3
20260905222022 26 355 3.2 14.5 0.00 0.00 0.00 79 1010.3
20260905221534 26 331 3.2 14.5 0.00 0.00 0.00 80 1010.3
20260905221116 26 355 4.8 14.5 0.00 0.00 0.00 80 1010.4
20260905220515 26 355 4.8 19.3 0.00 0.00 0.00 80 1010.3
20260905220015 26 317 8.0 19.3 0.00 0.00 0.00 81 1010.2
20260905215517 26 350 6.4 16.1 0.00 0.00 0.00 81 1010.2
20260905215015 25 355 6.4 22.5 0.00 0.00 0.00 81 1010.2
20260905214514 25 355 9.7 24.1 0.00 0.00 0.00 81 1010.1
20260905214015 26 5 9.7 24.1 0.00 0.00 0.00 81 1010.2
20260905213513 26 344 8.0 16.1 0.00 0.00 0.00 81 1010.3
20260905213011 25 355 6.4 20.9 0.00 0.00 0.00 82 1010.5
20260905212511 25 346 12.9 20.9 0.00 0.00 0.00 80 1010.7
20260905212015 26 351 8.0 22.5 0.00 0.00 0.00 80 1011.0
20260905211524 25 11 4.8 22.5 0.00 0.00 0.00 81 1011.0
20260905211008 26 338 14.5 20.9 0.00 0.00 0.00 80 1011.1
20260905210510 26 5 11.3 19.3 0.00 0.00 0.00 80 1011.2
20260905210007 26 355 6.4 20.9 0.00 0.00 0.00 80 1011.5
20260905205508 26 336 8.0 20.9 0.00 0.00 0.00 80 1011.6
20260905205007 26 13 11.3 20.9 0.00 0.00 0.00 80 1011.7
20260905204509 26 355 6.4 19.3 0.00 0.00 0.00 81 1011.7
20260905204007 26 5 9.7 24.1 0.00 0.00 0.00 81 1012.0
20260905203508 26 347 9.7 24.1 0.00 0.00 0.00 81 1011.9
20260905203008 26 345 8.0 24.1 0.00 0.00 0.00 81 1012.0
20260905202505 26 348 4.8 20.9 0.00 0.00 0.00 80 1012.0
20260905202005 26 355 8.0 20.9 0.00 0.00 0.00 80 1012.0
20260905201610 26 13 9.7 22.5 0.00 0.00 0.00 79 1012.2
20260905201007 26 355 11.3 19.3 0.00 0.00 0.00 78 1012.1
20260905200503 26 355 8.0 17.7 0.00 0.00 0.00 78 1011.9
20260905200004 26 351 8.0 20.9 0.00 0.00 0.00 78 1012.0